DW2270 Weather Reports


Display with metric or nautical units.
time (UTC)temp
F
wind
direction
speed
MPH
gust
MPH
rain 1hr
in
rain 24hr
in
rain mn
in
humidity
%
barometer
mb
20260902105715 79 270 0.0 3.0 0.00 0.20 0.01 1 1012.3
20260902104641 79 154 0.0 1.0 0.00 0.20 0.01 1 1012.2
20260902102439 78 63 0.0 1.0 0.00 0.20 0.01 1 1012.3
20260902101406 78 252 0.0 1.0 0.00 0.20 0.01 1 1012.4
20260902095245 78 179 0.0 0.0 0.00 0.20 0.01 1 1012.4
20260902093113 77 214 0.0 0.0 0.00 0.20 0.01 1 1012.6
20260902092125 77 153 0.0 0.0 0.00 0.20 0.01 1 1012.5
20260902091052 77 153 0.0 0.0 0.00 0.20 0.01 1 1012.5
20260902090021 77 221 0.0 1.0 0.00 0.20 0.01 1 1012.4
20260902084958 77 167 0.0 0.0 0.00 0.19 0.00 1 1012.5
20260902082826 77 167 0.0 0.0 0.00 0.19 0.00 1 1012.5
20260902081756 77 167 0.0 0.0 0.00 0.19 0.00 1 1012.4
20260902080758 77 167 0.0 0.0 0.00 0.19 0.00 1 1012.5
20260902075815 77 167 0.0 0.0 0.00 0.19 0.00 1 1012.6
20260902073600 77 181 0.0 0.0 0.00 0.19 0.00 1 1012.5
20260902072600 77 177 0.0 0.0 0.00 0.19 0.00 1 1012.5
20260902071614 77 124 0.0 0.0 0.00 0.19 0.00 1 1012.6
20260902070558 77 124 0.0 0.0 0.00 0.19 0.00 1 1012.7
20260902065618 77 124 0.0 0.0 0.00 0.19 0.00 1 1012.7
20260902064621 77 124 0.0 0.0 0.00 0.19 0.00 1 1012.6
20260902063633 77 119 0.0 2.0 0.00 0.19 0.00 1 1012.6
20260902062558 77 113 0.0 0.0 0.00 0.19 0.00 1 1012.8
20260902061526 77 113 0.0 1.0 0.00 0.19 0.00 1 1012.7
20260902060517 77 113 0.0 0.0 0.00 0.19 0.00 1 1012.6
20260902055519 77 113 0.0 0.0 0.00 0.19 0.00 1 1012.5
20260902054512 78 113 0.0 0.0 0.00 0.19 0.00 1 1012.4
20260902053526 78 249 0.0 0.0 0.00 0.19 0.00 1 1012.4
20260902051420 78 249 0.0 0.0 0.00 0.19 0.00 1 1012.4
20260902050355 78 260 0.0 0.0 0.00 0.19 0.00 1 1012.6
20260902045337 78 260 0.0 0.0 0.00 0.19 0.20 1 1012.6
20260902044315 78 260 0.0 0.0 0.00 0.19 0.20 1 1012.6
20260902043313 78 260 0.0 0.0 0.00 0.19 0.20 1 1012.6
20260902042329 78 260 0.0 0.0 0.00 0.19 0.20 1 1012.5
20260902041302 78 259 0.0 0.0 0.00 0.19 0.20 1 1012.7
20260902040317 78 260 0.0 0.0 0.00 0.19 0.20 1 1012.7
20260902035310 78 260 0.0 0.0 0.00 0.19 0.20 1 1012.6
20260902034321 79 260 0.0 0.0 0.00 0.19 0.20 1 1012.7
20260902033311 79 260 0.0 0.0 0.00 0.19 0.20 1 1012.7
20260902032248 79 260 0.0 0.0 0.00 0.19 0.20 1 1012.7
20260902031308 79 260 0.0 0.0 0.00 0.19 0.20 1 1012.8
20260902025051 79 259 0.0 0.0 0.00 0.19 0.20 1 1012.7
20260902022951 79 260 0.0 0.0 0.00 0.19 0.20 1 1012.3
20260902022004 79 260 0.0 0.0 0.00 0.19 0.20 1 1012.2
20260902020949 79 260 0.0 0.0 0.00 0.19 0.20 1 1012.0
20260902015938 79 260 0.0 0.0 0.00 0.19 0.20 1 1012.1
20260902014916 79 260 0.0 0.0 0.00 0.19 0.20 1 1012.1
20260902013939 79 260 0.0 0.0 0.00 0.19 0.20 1 1011.8
20260902012943 79 260 0.0 0.0 0.00 0.19 0.20 1 1011.7
20260902012005 80 260 0.0 0.0 0.00 0.19 0.20 1 1011.7
20260902011004 80 260 0.0 0.0 0.00 0.19 0.20 1 1011.7
20260902010001 80 260 0.0 0.0 0.00 0.19 0.20 1 1011.7
20260902004944 80 260 0.0 0.0 0.00 0.19 0.20 1 1011.8
20260902003949 80 260 0.0 0.0 0.00 0.19 0.20 1 1012.0
20260902003004 80 260 0.0 0.0 0.00 0.19 0.20 1 1012.0
20260902001932 80 260 0.0 0.0 0.00 0.19 0.20 1 1012.1
20260902000908 80 260 0.0 0.0 0.00 0.19 0.20 1 1012.0
20260901235907 79 260 0.0 0.0 0.00 0.19 0.20 1 1011.9
20260901234848 79 260 0.0 0.0 0.00 0.19 0.20 1 1012.0
20260901233855 80 260 0.0 0.0 0.00 0.19 0.20 1 1012.1
20260901231702 80 259 0.0 0.0 0.04 0.19 0.19 1 1012.1
20260901230721 80 260 0.0 0.0 0.09 0.19 0.19 1 1012.3
20260901225724 80 260 0.0 0.0 0.04 0.18 0.18 1 1012.5
20260901224729 80 260 0.0 0.0 0.04 0.16 0.17 1 1012.7
20260901223736 80 260 0.0 0.0 0.05 0.16 0.16 1 1012.9
20260901222751 81 259 0.0 0.0 0.16 0.16 0.16 1 1013.2
20260901221752 82 260 0.0 0.0 0.25 0.13 0.13 1 1013.4
20260901220740 83 0 1.0 12.0 0.64 0.08 0.09 1 1013.5
20260901215749 86 74 2.0 12.0 0.00 0.00 0.00 33 1013.3
20260901214727 91 5 1.0 11.0 0.00 0.00 0.00 54 1012.8
20260901213721 92 319 0.0 3.0 0.00 0.00 0.00 55 1012.4
20260901212705 92 344 0.0 2.0 0.00 0.00 0.00 55 1012.2
20260901211720 92 229 0.0 0.0 0.00 0.00 0.00 55 1012.2
20260901210703 92 223 0.0 3.0 0.00 0.00 0.00 54 1012.2
20260901205710 92 141 0.0 1.0 0.00 0.00 0.00 55 1012.3
20260901204724 92 209 0.0 4.0 0.00 0.00 0.00 55 1012.2
20260901203712 92 233 0.0 3.0 0.00 0.00 0.00 55 1012.3
20260901202707 91 207 0.0 2.0 0.00 0.00 0.00 55 1012.5
20260901200539 91 9 0.0 4.0 0.00 0.00 0.00 55 1013.1
20260901194408 91 292 0.0 1.0 0.00 0.00 0.00 51 1013.7
20260901193426 91 239 0.0 4.0 0.00 0.00 0.00 52 1013.8
20260901192420 91 200 0.0 4.0 0.00 0.00 0.00 48 1013.8
20260901191411 90 200 0.0 1.0 0.00 0.00 0.00 41 1013.6
20260901190419 90 200 0.0 1.0 0.00 0.00 0.00 37 1013.5
20260901185434 89 200 0.0 4.0 0.00 0.00 0.00 35 1013.6
20260901184457 89 130 0.0 4.0 0.00 0.00 0.00 29 1013.8
20260901182329 88 248 0.0 1.0 0.00 0.00 0.00 18 1014.0
20260901180201 87 123 0.0 1.0 0.00 0.00 0.00 6 1014.3
20260901175202 87 123 0.0 0.0 0.00 0.00 0.00 5 1014.6
20260901174141 86 237 0.0 0.0 0.00 0.00 0.00 3 1014.7
20260901170844 86 237 0.0 2.0 0.00 0.00 0.00 14 1015.4
20260901165833 86 229 0.0 1.0 0.00 0.00 0.00 21 1015.5
20260901164855 86 229 0.0 3.0 0.00 0.00 0.00 22 1015.6
20260901163856 86 215 0.0 3.0 0.00 0.00 0.00 21 1015.6
20260901162839 86 205 0.0 2.0 0.00 0.00 0.00 21 1015.6
20260901160624 86 26 0.0 3.0 0.00 0.00 0.00 10 1015.5
20260901155627 86 214 0.0 1.0 0.00 0.00 0.00 9 1015.4
20260901154652 86 355 0.0 2.0 0.00 0.00 0.00 7 1015.3
20260901153634 86 342 0.0 3.0 0.00 0.00 0.00 8 1015.4
20260901152602 86 251 0.0 5.0 0.00 0.00 0.00 5 1015.5
20260901151529 86 292 0.0 5.0 0.00 0.00 0.00 1 1015.5
20260901145421 85 307 0.0 2.0 0.00 0.00 0.00 1 1015.5
20260901143306 83 232 0.0 2.0 0.00 0.00 0.00 1 1015.6
20260901142305 82 0 0.0 2.0 0.00 0.00 0.00 1 1015.5
20260901141317 81 81 0.0 1.0 0.00 0.00 0.00 1 1015.6
20260901140329 80 315 0.0 0.0 0.00 0.00 0.00 1 1015.7
20260901135326 80 177 0.0 0.0 0.00 0.00 0.00 1 1015.8
20260901134343 79 177 0.0 0.0 0.00 0.00 0.00 1 1015.6
20260901132232 79 177 0.0 0.0 0.00 0.00 0.00 1 1015.6
20260901131219 78 177 0.0 0.0 0.00 0.00 0.00 1 1015.5
20260901130233 78 177 0.0 0.0 0.00 0.00 0.00 1 1015.2
20260901125219 78 177 0.0 0.0 0.00 0.00 0.00 1 1015.2
20260901124206 78 177 0.0 0.0 0.00 0.00 0.00 1 1015.1
20260901123150 78 177 0.0 0.0 0.00 0.00 0.00 1 1015.0
20260901122134 78 177 0.0 0.0 0.00 0.00 0.00 1 1014.8
20260901121155 78 177 0.0 0.0 0.00 0.00 0.00 1 1014.7
20260901120215 78 177 0.0 0.0 0.00 0.00 0.00 1 1014.7
20260901115238 78 177 0.0 0.0 0.00 0.00 0.00 1 1014.6
20260901114209 79 177 0.0 0.0 0.00 0.00 0.00 1 1014.5
20260901113211 79 177 0.0 0.0 0.00 0.00 0.00 1 1014.4
20260901112222 79 177 0.0 0.0 0.00 0.00 0.00 1 1014.5
20260901111244 79 177 0.0 0.0 0.00 0.00 0.00 1 1014.5